Hourly Weather Roundup
Issued by NWS Central Illinois

Home | Current Version | Previous Version | Text Only | Print | Product List | Glossary On
Versions: 1 2 3 4 5 6 7 8 9 10 11 12 13 14 15 16 17 18 19 20 21 22 23 24 25 26 27 28 29 30 31 32 33 34 35 36 37 38 39 40 41 42 43 44 45 46 47 48 49 50
000
NZUS43 KILX 232110
HWRILX

Area Weather Roundup
National Weather Service Lincoln IL
400 PM CDT SUN JUL 23 2017

NOTE:  "FAIR" indicates few or no clouds below 12,000 feet, with
       no sigificant weather and/or obstructions to visibility.


CITY           SKY/WX    TMP DP  RH WIND       PRES   REMARKS
Bloomington    MOSUNNY   89  68  49 W12G20    29.84F HX  93
Champaign      SUNNY     88  69  53 W13G18    29.84S HX  92
Danville       SUNNY     87  69  53 NW10      29.80R HX  91
Decatur        SUNNY     90  68  48 NW10      29.85S HX  94
Effingham      SUNNY     87  73  63 SW8       29.87F HX  95
Flora          SUNNY     88  70  55 W8        29.86S HX  93
Galesburg      SUNNY     87  71  58 W10G17    29.85S HX  92
Jacksonville   PTSUNNY   90  73  56 SW8       29.84F HX  98
Lacon          MOSUNNY   89  68  50 W12G18    29.80F HX  92
Lawrenceville  SUNNY     86  73  65 W8        29.85S HX  93
Litchfield     SUNNY     85  74  68 CALM      29.87F HX  92
$$


CITY           SKY/WX    TMP DP  RH WIND       PRES   REMARKS
Lincoln        SUNNY     91  73  56 CALM      29.84S HX  99
Macomb         SUNNY     89  71  54 NW7       29.86F HX  94
Mattoon        SUNNY     89  73  59 NW12      29.84S HX  97
Mt Carmel AP   NOT AVBL
Olney-Noble AP SUNNY     87  70  57 W8        29.87S HX  91
Paris AP       MOSUNNY   86  74  68 W12       29.83S HX  94
Peoria         SUNNY     90  70  51 NW10      29.82F HX  95
Pontiac        SUNNY     87  72  60 W8        29.82F HX  93
Rantoul        SUNNY     91  65  42 NW13      29.83S HX  92
Robinson       SUNNY     84  72  67 W9G17     29.85S HX  90
Springfield    MOSUNNY   92  76  59 W6        29.84F HX 104
Taylorville    MOSUNNY   88  74  62 W6        29.85S HX  97
$$

...REGIONAL REPORTS...


CITY           SKY/WX    TMP DP  RH WIND       PRES   REMARKS
Chicago O`Hare CLOUDY    88  62  41 W13G21    29.75F HX  88
Kankakee       PTSUNNY   86  70  59 W13       29.80F HX  91
Moline         SUNNY     87  64  46 W16G25    29.82R HX  88
Mount Sterling SUNNY     91  71  50 W9        29.84F HX  98
Mount Vernon   MOSUNNY   88  67  49 W6        29.87F HX  91
Pittsfield     SUNNY     91  75  57 SW7       29.85F HX 102
Quincy         PTSUNNY   92  68  45 NW9       29.84F HX  96
Rockford       PTSUNNY   86  69  56 N22G29    29.79R THUNDER HX  90
$$


CITY           SKY/WX    TMP DP  RH WIND       PRES   REMARKS
Burlington     SUNNY     90  70  51 NW9       29.84S HX  95
Cedar Rapids   SUNNY     82  64  54 NW21      29.87R HX  83
Des Moines     MOSUNNY   87  61  41 N16G23    29.90S HX  87
Kirksville     MOSUNNY   93  67  42 VRB6      29.88F HX  96
Ottumwa        SUNNY     91  57  31 NW17G24   29.88S HX  89
St Louis       PTSUNNY   93  65  39 W8G20     29.87  HX  95
$$


CITY           SKY/WX    TMP DP  RH WIND       PRES   REMARKS
Terre Haute    MOSUNNY   87  73  62 W13       29.82F HX  94
Evansville     SUNNY     88  69  53 NW10G18   29.86S HX  92
Indianapolis   CLOUDY    76  68  76 SW10      29.82R
Lafayette      PTSUNNY   86  73  65 W14       29.79R HX  93
Madison        MOSUNNY   81  63  54 N12G22    29.80F HX  82
Milwaukee      PTSUNNY   83  64  52 N6        29.78F HX  84
$$





USA.gov is the U.S. government's official web portal to all federal, state and local government web resources and services.